File Updated: 22-Dec-2023, Data version 2.0 deriv_screen =  50 
Site_Code,Country,City,Latitude,Longitude,Elevation_meters,Year_local,Month_local,Day_local,hour_local,Parameter_Code,Parameter_Name,Value,Units,Method_Code,Collection_Description,Analysis_Description,Conditions
CAKE,Canada,Kelowna,49.9413,-119.4,456,2017,11,10,14,28108,Estimated PM2.5 mass,2.4,Micrograms per cubic meter (ug/m3),181,Site record PM2.5 mass-to-scatter (dry at 550 nm) ratio used to estimate PM2.5 mass; preliminary data,Nephelometry,Ambient local
CAKE,Canada,Kelowna,49.9413,-119.4,456,2017,11,10,15,28108,Estimated PM2.5 mass,1.6,Micrograms per cubic meter (ug/m3),181,Site record PM2.5 mass-to-scatter (dry at 550 nm) ratio used to estimate PM2.5 mass; preliminary data,Nephelometry,Ambient local
CAKE,Canada,Kelowna,49.9413,-119.4,456,2017,11,10,16,28108,Estimated PM2.5 mass,2.2,Micrograms per cubic meter (ug/m3),181,Site record PM2.5 mass-to-scatter (dry at 550 nm) ratio used to estimate PM2.5 mass; preliminary data,Nephelometry,Ambient local
CAKE,Canada,Kelowna,49.9413,-119.4,456,2018,3,16,9,28108,Estimated PM2.5 mass,1.7,Micrograms per cubic meter (ug/m3),181,Site record PM2.5 mass-to-scatter (dry at 550 nm) ratio used to estimate PM2.5 mass; preliminary data,Nephelometry,Ambient local
CAKE,Canada,Kelowna,49.9413,-119.4,456,2018,3,16,10,28108,Estimated PM2.5 mass,1.1,Micrograms per cubic meter (ug/m3),181,Site record PM2.5 mass-to-scatter (dry at 550 nm) ratio used to estimate PM2.5 mass; preliminary data,Nephelometry,Ambient local
CAKE,Canada,Kelowna,49.9413,-119.4,456,2018,3,16,11,28108,Estimated PM2.5 mass,1.2,Micrograms per cubic meter (ug/m3),181,Site record PM2.5 mass-to-scatter (dry at 550 nm) ratio used to estimate PM2.5 mass; preliminary data,Nephelometry,Ambient local
CAKE,Canada,Kelowna,49.9413,-119.4,456,2018,3,16,12,28108,Estimated PM2.5 mass,1.3,Micrograms per cubic meter (ug/m3),181,Site record PM2.5 mass-to-scatter (dry at 550 nm) ratio used to estimate PM2.5 mass; preliminary data,Nephelometry,Ambient local
CAKE,Canada,Kelowna,49.9413,-119.4,456,2018,3,16,13,28108,Estimated PM2.5 mass,1.4,Micrograms per cubic meter (ug/m3),181,Site record PM2.5 mass-to-scatter (dry at 550 nm) ratio used to estimate PM2.5 mass; preliminary data,Nephelometry,Ambient local
CAKE,Canada,Kelowna,49.9413,-119.4,456,2018,3,16,14,28108,Estimated PM2.5 mass,1.4,Micrograms per cubic meter (ug/m3),181,Site record PM2.5 mass-to-scatter (dry at 550 nm) ratio used to estimate PM2.5 mass; preliminary data,Nephelometry,Ambient local
CAKE,Canada,Kelowna,49.9413,-119.4,456,2018,3,16,15,28108,Estimated PM2.5 mass,1.7,Micrograms per cubic meter (ug/m3),181,Site record PM2.5 mass-to-scatter (dry at 550 nm) ratio used to estimate PM2.5 mass; preliminary data,Nephelometry,Ambient local
CAKE,Canada,Kelowna,49.9413,-119.4,456,2018,3,16,16,28108,Estimated PM2.5 mass,2.1,Micrograms per cubic meter (ug/m3),181,Site record PM2.5 mass-to-scatter (dry at 550 nm) ratio used to estimate PM2.5 mass; preliminary data,Nephelometry,Ambient local
CAKE,Canada,Kelowna,49.9413,-119.4,456,2018,3,16,17,28108,Estimated PM2.5 mass,2.1,Micrograms per cubic meter (ug/m3),181,Site record PM2.5 mass-to-scatter (dry at 550 nm) ratio used to estimate PM2.5 mass; preliminary data,Nephelometry,Ambient local
CAKE,Canada,Kelowna,49.9413,-119.4,456,2018,3,16,18,28108,Estimated PM2.5 mass,2,Micrograms per cubic meter (ug/m3),181,Site record PM2.5 mass-to-scatter (dry at 550 nm) ratio used to estimate PM2.5 mass; preliminary data,Nephelometry,Ambient local
CAKE,Canada,Kelowna,49.9413,-119.4,456,2018,3,16,19,28108,Estimated PM2.5 mass,2,Micrograms per cubic meter (ug/m3),181,Site record PM2.5 mass-to-scatter (dry at 550 nm) ratio used to estimate PM2.5 mass; preliminary data,Nephelometry,Ambient local
CAKE,Canada,Kelowna,49.9413,-119.4,456,2018,3,16,20,28108,Estimated PM2.5 mass,2,Micrograms per cubic meter (ug/m3),181,Site record PM2.5 mass-to-scatter (dry at 550 nm) ratio used to estimate PM2.5 mass; preliminary data,Nephelometry,Ambient local
CAKE,Canada,Kelowna,49.9413,-119.4,456,2018,3,16,21,28108,Estimated PM2.5 mass,2.1,Micrograms per cubic meter (ug/m3),181,Site record PM2.5 mass-to-scatter (dry at 550 nm) ratio used to estimate PM2.5 mass; preliminary data,Nephelometry,Ambient local
CAKE,Canada,Kelowna,49.9413,-119.4,456,2018,3,16,22,28108,Estimated PM2.5 mass,2.2,Micrograms per cubic meter (ug/m3),181,Site record PM2.5 mass-to-scatter (dry at 550 nm) ratio used to estimate PM2.5 mass; preliminary data,Nephelometry,Ambient local
CAKE,Canada,Kelowna,49.9413,-119.4,456,2018,3,16,23,28108,Estimated PM2.5 mass,2.3,Micrograms per cubic meter (ug/m3),181,Site record PM2.5 mass-to-scatter (dry at 550 nm) ratio used to estimate PM2.5 mass; preliminary data,Nephelometry,Ambient local
CAKE,Canada,Kelowna,49.9413,-119.4,456,2018,3,17,0,28108,Estimated PM2.5 mass,2.4,Micrograms per cubic meter (ug/m3),181,Site record PM2.5 mass-to-scatter (dry at 550 nm) ratio used to estimate PM2.5 mass; preliminary data,Nephelometry,Ambient local
CAKE,Canada,Kelowna,49.9413,-119.4,456,2018,3,17,1,28108,Estimated PM2.5 mass,2.5,Micrograms per cubic meter (ug/m3),181,Site record PM2.5 mass-to-scatter (dry at 550 nm) ratio used to estimate PM2.5 mass; preliminary data,Nephelometry,Ambient local
CAKE,Canada,Kelowna,49.9413,-119.4,456,2018,3,17,2,28108,Estimated PM2.5 mass,2.7,Micrograms per cubic meter (ug/m3),181,Site record PM2.5 mass-to-scatter (dry at 550 nm) ratio used to estimate PM2.5 mass; preliminary data,Nephelometry,Ambient local
CAKE,Canada,Kelowna,49.9413,-119.4,456,2018,3,17,3,28108,Estimated PM2.5 mass,2.6,Micrograms per cubic meter (ug/m3),181,Site record PM2.5 mass-to-scatter (dry at 550 nm) ratio used to estimate PM2.5 mass; preliminary data,Nephelometry,Ambient local
CAKE,Canada,Kelowna,49.9413,-119.4,456,2018,3,17,4,28108,Estimated PM2.5 mass,1.6,Micrograms per cubic meter (ug/m3),181,Site record PM2.5 mass-to-scatter (dry at 550 nm) ratio used to estimate PM2.5 mass; preliminary data,Nephelometry,Ambient local
CAKE,Canada,Kelowna,49.9413,-119.4,456,2018,3,17,5,28108,Estimated PM2.5 mass,0.8,Micrograms per cubic meter (ug/m3),181,Site record PM2.5 mass-to-scatter (dry at 550 nm) ratio used to estimate PM2.5 mass; preliminary data,Nephelometry,Ambient local
CAKE,Canada,Kelowna,49.9413,-119.4,456,2018,3,17,6,28108,Estimated PM2.5 mass,1.1,Micrograms per cubic meter (ug/m3),181,Site record PM2.5 mass-to-scatter (dry at 550 nm) ratio used to estimate PM2.5 mass; preliminary data,Nephelometry,Ambient local
CAKE,Canada,Kelowna,49.9413,-119.4,456,2018,3,17,7,28108,Estimated PM2.5 mass,1.3,Micrograms per cubic meter (ug/m3),181,Site record PM2.5 mass-to-scatter (dry at 550 nm) ratio used to estimate PM2.5 mass; preliminary data,Nephelometry,Ambient local
CAKE,Canada,Kelowna,49.9413,-119.4,456,2018,3,17,8,28108,Estimated PM2.5 mass,1.2,Micrograms per cubic meter (ug/m3),181,Site record PM2.5 mass-to-scatter (dry at 550 nm) ratio used to estimate PM2.5 mass; preliminary data,Nephelometry,Ambient local
CAKE,Canada,Kelowna,49.9413,-119.4,456,2018,3,17,9,28108,Estimated PM2.5 mass,1.2,Micrograms per cubic meter (ug/m3),181,Site record PM2.5 mass-to-scatter (dry at 550 nm) ratio used to estimate PM2.5 mass; preliminary data,Nephelometry,Ambient local
CAKE,Canada,Kelowna,49.9413,-119.4,456,2018,3,17,10,28108,Estimated PM2.5 mass,1.1,Micrograms per cubic meter (ug/m3),181,Site record PM2.5 mass-to-scatter (dry at 550 nm) ratio used to estimate PM2.5 mass; preliminary data,Nephelometry,Ambient local
CAKE,Canada,Kelowna,49.9413,-119.4,456,2018,3,17,11,28108,Estimated PM2.5 mass,1.3,Micrograms per cubic meter (ug/m3),181,Site record PM2.5 mass-to-scatter (dry at 550 nm) ratio used to estimate PM2.5 mass; preliminary data,Nephelometry,Ambient local
CAKE,Canada,Kelowna,49.9413,-119.4,456,2018,3,17,12,28108,Estimated PM2.5 mass,1.4,Micrograms per cubic meter (ug/m3),181,Site record PM2.5 mass-to-scatter (dry at 550 nm) ratio used to estimate PM2.5 mass; preliminary data,Nephelometry,Ambient local
CAKE,Canada,Kelowna,49.9413,-119.4,456,2018,3,17,13,28108,Estimated PM2.5 mass,1.5,Micrograms per cubic meter (ug/m3),181,Site record PM2.5 mass-to-scatter (dry at 550 nm) ratio used to estimate PM2.5 mass; preliminary data,Nephelometry,Ambient local
CAKE,Canada,Kelowna,49.9413,-119.4,456,2018,3,17,14,28108,Estimated PM2.5 mass,1.8,Micrograms per cubic meter (ug/m3),181,Site record PM2.5 mass-to-scatter (dry at 550 nm) ratio used to estimate PM2.5 mass; preliminary data,Nephelometry,Ambient local
CAKE,Canada,Kelowna,49.9413,-119.4,456,2018,3,17,15,28108,Estimated PM2.5 mass,2.1,Micrograms per cubic meter (ug/m3),181,Site record PM2.5 mass-to-scatter (dry at 550 nm) ratio used to estimate PM2.5 mass; preliminary data,Nephelometry,Ambient local
CAKE,Canada,Kelowna,49.9413,-119.4,456,2018,3,17,16,28108,Estimated PM2.5 mass,1.5,Micrograms per cubic meter (ug/m3),181,Site record PM2.5 mass-to-scatter (dry at 550 nm) ratio used to estimate PM2.5 mass; preliminary data,Nephelometry,Ambient local
CAKE,Canada,Kelowna,49.9413,-119.4,456,2018,3,17,17,28108,Estimated PM2.5 mass,1.1,Micrograms per cubic meter (ug/m3),181,Site record PM2.5 mass-to-scatter (dry at 550 nm) ratio used to estimate PM2.5 mass; preliminary data,Nephelometry,Ambient local
CAKE,Canada,Kelowna,49.9413,-119.4,456,2018,3,17,18,28108,Estimated PM2.5 mass,1.1,Micrograms per cubic meter (ug/m3),181,Site record PM2.5 mass-to-scatter (dry at 550 nm) ratio used to estimate PM2.5 mass; preliminary data,Nephelometry,Ambient local
CAKE,Canada,Kelowna,49.9413,-119.4,456,2018,3,17,19,28108,Estimated PM2.5 mass,1.2,Micrograms per cubic meter (ug/m3),181,Site record PM2.5 mass-to-scatter (dry at 550 nm) ratio used to estimate PM2.5 mass; preliminary data,Nephelometry,Ambient local
CAKE,Canada,Kelowna,49.9413,-119.4,456,2018,3,17,20,28108,Estimated PM2.5 mass,1.2,Micrograms per cubic meter (ug/m3),181,Site record PM2.5 mass-to-scatter (dry at 550 nm) ratio used to estimate PM2.5 mass; preliminary data,Nephelometry,Ambient local
CAKE,Canada,Kelowna,49.9413,-119.4,456,2018,3,17,21,28108,Estimated PM2.5 mass,1.2,Micrograms per cubic meter (ug/m3),181,Site record PM2.5 mass-to-scatter (dry at 550 nm) ratio used to estimate PM2.5 mass; preliminary data,Nephelometry,Ambient local
CAKE,Canada,Kelowna,49.9413,-119.4,456,2018,3,17,22,28108,Estimated PM2.5 mass,1.3,Micrograms per cubic meter (ug/m3),181,Site record PM2.5 mass-to-scatter (dry at 550 nm) ratio used to estimate PM2.5 mass; preliminary data,Nephelometry,Ambient local
CAKE,Canada,Kelowna,49.9413,-119.4,456,2018,3,17,23,28108,Estimated PM2.5 mass,1.4,Micrograms per cubic meter (ug/m3),181,Site record PM2.5 mass-to-scatter (dry at 550 nm) ratio used to estimate PM2.5 mass; preliminary data,Nephelometry,Ambient local
CAKE,Canada,Kelowna,49.9413,-119.4,456,2018,3,18,0,28108,Estimated PM2.5 mass,1.4,Micrograms per cubic meter (ug/m3),181,Site record PM2.5 mass-to-scatter (dry at 550 nm) ratio used to estimate PM2.5 mass; preliminary data,Nephelometry,Ambient local
CAKE,Canada,Kelowna,49.9413,-119.4,456,2018,3,18,1,28108,Estimated PM2.5 mass,1.6,Micrograms per cubic meter (ug/m3),181,Site record PM2.5 mass-to-scatter (dry at 550 nm) ratio used to estimate PM2.5 mass; preliminary data,Nephelometry,Ambient local
CAKE,Canada,Kelowna,49.9413,-119.4,456,2018,3,18,2,28108,Estimated PM2.5 mass,1.8,Micrograms per cubic meter (ug/m3),181,Site record PM2.5 mass-to-scatter (dry at 550 nm) ratio used to estimate PM2.5 mass; preliminary data,Nephelometry,Ambient local
CAKE,Canada,Kelowna,49.9413,-119.4,456,2018,3,18,3,28108,Estimated PM2.5 mass,2.1,Micrograms per cubic meter (ug/m3),181,Site record PM2.5 mass-to-scatter (dry at 550 nm) ratio used to estimate PM2.5 mass; preliminary data,Nephelometry,Ambient local
CAKE,Canada,Kelowna,49.9413,-119.4,456,2018,3,18,4,28108,Estimated PM2.5 mass,2.3,Micrograms per cubic meter (ug/m3),181,Site record PM2.5 mass-to-scatter (dry at 550 nm) ratio used to estimate PM2.5 mass; preliminary data,Nephelometry,Ambient local
CAKE,Canada,Kelowna,49.9413,-119.4,456,2018,3,18,5,28108,Estimated PM2.5 mass,2,Micrograms per cubic meter (ug/m3),181,Site record PM2.5 mass-to-scatter (dry at 550 nm) ratio used to estimate PM2.5 mass; preliminary data,Nephelometry,Ambient local
CAKE,Canada,Kelowna,49.9413,-119.4,456,2018,3,18,6,28108,Estimated PM2.5 mass,1.7,Micrograms per cubic meter (ug/m3),181,Site record PM2.5 mass-to-scatter (dry at 550 nm) ratio used to estimate PM2.5 mass; preliminary data,Nephelometry,Ambient local
CAKE,Canada,Kelowna,49.9413,-119.4,456,2018,3,18,7,28108,Estimated PM2.5 mass,1.6,Micrograms per cubic meter (ug/m3),181,Site record PM2.5 mass-to-scatter (dry at 550 nm) ratio used to estimate PM2.5 mass; preliminary data,Nephelometry,Ambient local
CAKE,Canada,Kelowna,49.9413,-119.4,456,2018,3,18,8,28108,Estimated PM2.5 mass,1.2,Micrograms per cubic meter (ug/m3),181,Site record PM2.5 mass-to-scatter (dry at 550 nm) ratio used to estimate PM2.5 mass; preliminary data,Nephelometry,Ambient local
CAKE,Canada,Kelowna,49.9413,-119.4,456,2018,3,18,9,28108,Estimated PM2.5 mass,1.1,Micrograms per cubic meter (ug/m3),181,Site record PM2.5 mass-to-scatter (dry at 550 nm) ratio used to estimate PM2.5 mass; preliminary data,Nephelometry,Ambient local
CAKE,Canada,Kelowna,49.9413,-119.4,456,2018,3,18,10,28108,Estimated PM2.5 mass,1,Micrograms per cubic meter (ug/m3),181,Site record PM2.5 mass-to-scatter (dry at 550 nm) ratio used to estimate PM2.5 mass; preliminary data,Nephelometry,Ambient local
CAKE,Canada,Kelowna,49.9413,-119.4,456,2018,3,18,11,28108,Estimated PM2.5 mass,1.1,Micrograms per cubic meter (ug/m3),181,Site record PM2.5 mass-to-scatter (dry at 550 nm) ratio used to estimate PM2.5 mass; preliminary data,Nephelometry,Ambient local
CAKE,Canada,Kelowna,49.9413,-119.4,456,2018,3,18,12,28108,Estimated PM2.5 mass,1.2,Micrograms per cubic meter (ug/m3),181,Site record PM2.5 mass-to-scatter (dry at 550 nm) ratio used to estimate PM2.5 mass; preliminary data,Nephelometry,Ambient local
CAKE,Canada,Kelowna,49.9413,-119.4,456,2018,3,18,13,28108,Estimated PM2.5 mass,1.2,Micrograms per cubic meter (ug/m3),181,Site record PM2.5 mass-to-scatter (dry at 550 nm) ratio used to estimate PM2.5 mass; preliminary data,Nephelometry,Ambient local
CAKE,Canada,Kelowna,49.9413,-119.4,456,2018,3,18,14,28108,Estimated PM2.5 mass,1.5,Micrograms per cubic meter (ug/m3),181,Site record PM2.5 mass-to-scatter (dry at 550 nm) ratio used to estimate PM2.5 mass; preliminary data,Nephelometry,Ambient local
CAKE,Canada,Kelowna,49.9413,-119.4,456,2018,3,18,15,28108,Estimated PM2.5 mass,1.6,Micrograms per cubic meter (ug/m3),181,Site record PM2.5 mass-to-scatter (dry at 550 nm) ratio used to estimate PM2.5 mass; preliminary data,Nephelometry,Ambient local
CAKE,Canada,Kelowna,49.9413,-119.4,456,2018,3,18,16,28108,Estimated PM2.5 mass,1.8,Micrograms per cubic meter (ug/m3),181,Site record PM2.5 mass-to-scatter (dry at 550 nm) ratio used to estimate PM2.5 mass; preliminary data,Nephelometry,Ambient local
CAKE,Canada,Kelowna,49.9413,-119.4,456,2018,3,18,17,28108,Estimated PM2.5 mass,1.7,Micrograms per cubic meter (ug/m3),181,Site record PM2.5 mass-to-scatter (dry at 550 nm) ratio used to estimate PM2.5 mass; preliminary data,Nephelometry,Ambient local
CAKE,Canada,Kelowna,49.9413,-119.4,456,2018,3,18,18,28108,Estimated PM2.5 mass,1.7,Micrograms per cubic meter (ug/m3),181,Site record PM2.5 mass-to-scatter (dry at 550 nm) ratio used to estimate PM2.5 mass; preliminary data,Nephelometry,Ambient local
CAKE,Canada,Kelowna,49.9413,-119.4,456,2018,3,18,19,28108,Estimated PM2.5 mass,1.7,Micrograms per cubic meter (ug/m3),181,Site record PM2.5 mass-to-scatter (dry at 550 nm) ratio used to estimate PM2.5 mass; preliminary data,Nephelometry,Ambient local
CAKE,Canada,Kelowna,49.9413,-119.4,456,2018,3,18,20,28108,Estimated PM2.5 mass,1.7,Micrograms per cubic meter (ug/m3),181,Site record PM2.5 mass-to-scatter (dry at 550 nm) ratio used to estimate PM2.5 mass; preliminary data,Nephelometry,Ambient local
CAKE,Canada,Kelowna,49.9413,-119.4,456,2018,3,18,21,28108,Estimated PM2.5 mass,1.8,Micrograms per cubic meter (ug/m3),181,Site record PM2.5 mass-to-scatter (dry at 550 nm) ratio used to estimate PM2.5 mass; preliminary data,Nephelometry,Ambient local
CAKE,Canada,Kelowna,49.9413,-119.4,456,2018,3,18,22,28108,Estimated PM2.5 mass,1.6,Micrograms per cubic meter (ug/m3),181,Site record PM2.5 mass-to-scatter (dry at 550 nm) ratio used to estimate PM2.5 mass; preliminary data,Nephelometry,Ambient local
CAKE,Canada,Kelowna,49.9413,-119.4,456,2018,3,18,23,28108,Estimated PM2.5 mass,1.7,Micrograms per cubic meter (ug/m3),181,Site record PM2.5 mass-to-scatter (dry at 550 nm) ratio used to estimate PM2.5 mass; preliminary data,Nephelometry,Ambient local
CAKE,Canada,Kelowna,49.9413,-119.4,456,2018,3,19,0,28108,Estimated PM2.5 mass,1.7,Micrograms per cubic meter (ug/m3),181,Site record PM2.5 mass-to-scatter (dry at 550 nm) ratio used to estimate PM2.5 mass; preliminary data,Nephelometry,Ambient local
CAKE,Canada,Kelowna,49.9413,-119.4,456,2018,3,19,1,28108,Estimated PM2.5 mass,1.8,Micrograms per cubic meter (ug/m3),181,Site record PM2.5 mass-to-scatter (dry at 550 nm) ratio used to estimate PM2.5 mass; preliminary data,Nephelometry,Ambient local
CAKE,Canada,Kelowna,49.9413,-119.4,456,2018,3,19,2,28108,Estimated PM2.5 mass,1.8,Micrograms per cubic meter (ug/m3),181,Site record PM2.5 mass-to-scatter (dry at 550 nm) ratio used to estimate PM2.5 mass; preliminary data,Nephelometry,Ambient local
CAKE,Canada,Kelowna,49.9413,-119.4,456,2018,3,19,3,28108,Estimated PM2.5 mass,1.5,Micrograms per cubic meter (ug/m3),181,Site record PM2.5 mass-to-scatter (dry at 550 nm) ratio used to estimate PM2.5 mass; preliminary data,Nephelometry,Ambient local
CAKE,Canada,Kelowna,49.9413,-119.4,456,2018,3,19,4,28108,Estimated PM2.5 mass,1.6,Micrograms per cubic meter (ug/m3),181,Site record PM2.5 mass-to-scatter (dry at 550 nm) ratio used to estimate PM2.5 mass; preliminary data,Nephelometry,Ambient local
CAKE,Canada,Kelowna,49.9413,-119.4,456,2018,3,19,5,28108,Estimated PM2.5 mass,1.5,Micrograms per cubic meter (ug/m3),181,Site record PM2.5 mass-to-scatter (dry at 550 nm) ratio used to estimate PM2.5 mass; preliminary data,Nephelometry,Ambient local
CAKE,Canada,Kelowna,49.9413,-119.4,456,2018,3,19,6,28108,Estimated PM2.5 mass,1.2,Micrograms per cubic meter (ug/m3),181,Site record PM2.5 mass-to-scatter (dry at 550 nm) ratio used to estimate PM2.5 mass; preliminary data,Nephelometry,Ambient local
CAKE,Canada,Kelowna,49.9413,-119.4,456,2018,3,19,7,28108,Estimated PM2.5 mass,1.1,Micrograms per cubic meter (ug/m3),181,Site record PM2.5 mass-to-scatter (dry at 550 nm) ratio used to estimate PM2.5 mass; preliminary data,Nephelometry,Ambient local
CAKE,Canada,Kelowna,49.9413,-119.4,456,2018,3,19,8,28108,Estimated PM2.5 mass,1.1,Micrograms per cubic meter (ug/m3),181,Site record PM2.5 mass-to-scatter (dry at 550 nm) ratio used to estimate PM2.5 mass; preliminary data,Nephelometry,Ambient local
CAKE,Canada,Kelowna,49.9413,-119.4,456,2018,3,19,9,28108,Estimated PM2.5 mass,1,Micrograms per cubic meter (ug/m3),181,Site record PM2.5 mass-to-scatter (dry at 550 nm) ratio used to estimate PM2.5 mass; preliminary data,Nephelometry,Ambient local
CAKE,Canada,Kelowna,49.9413,-119.4,456,2018,3,19,10,28108,Estimated PM2.5 mass,1.1,Micrograms per cubic meter (ug/m3),181,Site record PM2.5 mass-to-scatter (dry at 550 nm) ratio used to estimate PM2.5 mass; preliminary data,Nephelometry,Ambient local
CAKE,Canada,Kelowna,49.9413,-119.4,456,2018,3,19,11,28108,Estimated PM2.5 mass,1.2,Micrograms per cubic meter (ug/m3),181,Site record PM2.5 mass-to-scatter (dry at 550 nm) ratio used to estimate PM2.5 mass; preliminary data,Nephelometry,Ambient local
CAKE,Canada,Kelowna,49.9413,-119.4,456,2018,3,19,12,28108,Estimated PM2.5 mass,1.2,Micrograms per cubic meter (ug/m3),181,Site record PM2.5 mass-to-scatter (dry at 550 nm) ratio used to estimate PM2.5 mass; preliminary data,Nephelometry,Ambient local
CAKE,Canada,Kelowna,49.9413,-119.4,456,2018,3,19,13,28108,Estimated PM2.5 mass,1.4,Micrograms per cubic meter (ug/m3),181,Site record PM2.5 mass-to-scatter (dry at 550 nm) ratio used to estimate PM2.5 mass; preliminary data,Nephelometry,Ambient local
CAKE,Canada,Kelowna,49.9413,-119.4,456,2018,3,19,14,28108,Estimated PM2.5 mass,1.9,Micrograms per cubic meter (ug/m3),181,Site record PM2.5 mass-to-scatter (dry at 550 nm) ratio used to estimate PM2.5 mass; preliminary data,Nephelometry,Ambient local
CAKE,Canada,Kelowna,49.9413,-119.4,456,2018,3,19,15,28108,Estimated PM2.5 mass,2,Micrograms per cubic meter (ug/m3),181,Site record PM2.5 mass-to-scatter (dry at 550 nm) ratio used to estimate PM2.5 mass; preliminary data,Nephelometry,Ambient local
CAKE,Canada,Kelowna,49.9413,-119.4,456,2018,3,19,16,28108,Estimated PM2.5 mass,2.2,Micrograms per cubic meter (ug/m3),181,Site record PM2.5 mass-to-scatter (dry at 550 nm) ratio used to estimate PM2.5 mass; preliminary data,Nephelometry,Ambient local
CAKE,Canada,Kelowna,49.9413,-119.4,456,2018,3,19,17,28108,Estimated PM2.5 mass,2.2,Micrograms per cubic meter (ug/m3),181,Site record PM2.5 mass-to-scatter (dry at 550 nm) ratio used to estimate PM2.5 mass; preliminary data,Nephelometry,Ambient local
CAKE,Canada,Kelowna,49.9413,-119.4,456,2018,3,19,18,28108,Estimated PM2.5 mass,2.1,Micrograms per cubic meter (ug/m3),181,Site record PM2.5 mass-to-scatter (dry at 550 nm) ratio used to estimate PM2.5 mass; preliminary data,Nephelometry,Ambient local
CAKE,Canada,Kelowna,49.9413,-119.4,456,2018,3,19,19,28108,Estimated PM2.5 mass,2.3,Micrograms per cubic meter (ug/m3),181,Site record PM2.5 mass-to-scatter (dry at 550 nm) ratio used to estimate PM2.5 mass; preliminary data,Nephelometry,Ambient local
CAKE,Canada,Kelowna,49.9413,-119.4,456,2018,3,19,20,28108,Estimated PM2.5 mass,2.2,Micrograms per cubic meter (ug/m3),181,Site record PM2.5 mass-to-scatter (dry at 550 nm) ratio used to estimate PM2.5 mass; preliminary data,Nephelometry,Ambient local
CAKE,Canada,Kelowna,49.9413,-119.4,456,2018,3,19,21,28108,Estimated PM2.5 mass,2.1,Micrograms per cubic meter (ug/m3),181,Site record PM2.5 mass-to-scatter (dry at 550 nm) ratio used to estimate PM2.5 mass; preliminary data,Nephelometry,Ambient local
CAKE,Canada,Kelowna,49.9413,-119.4,456,2018,3,19,22,28108,Estimated PM2.5 mass,2.2,Micrograms per cubic meter (ug/m3),181,Site record PM2.5 mass-to-scatter (dry at 550 nm) ratio used to estimate PM2.5 mass; preliminary data,Nephelometry,Ambient local
CAKE,Canada,Kelowna,49.9413,-119.4,456,2018,3,19,23,28108,Estimated PM2.5 mass,2.6,Micrograms per cubic meter (ug/m3),181,Site record PM2.5 mass-to-scatter (dry at 550 nm) ratio used to estimate PM2.5 mass; preliminary data,Nephelometry,Ambient local
CAKE,Canada,Kelowna,49.9413,-119.4,456,2018,3,20,0,28108,Estimated PM2.5 mass,2.5,Micrograms per cubic meter (ug/m3),181,Site record PM2.5 mass-to-scatter (dry at 550 nm) ratio used to estimate PM2.5 mass; preliminary data,Nephelometry,Ambient local
CAKE,Canada,Kelowna,49.9413,-119.4,456,2018,3,20,1,28108,Estimated PM2.5 mass,3,Micrograms per cubic meter (ug/m3),181,Site record PM2.5 mass-to-scatter (dry at 550 nm) ratio used to estimate PM2.5 mass; preliminary data,Nephelometry,Ambient local
CAKE,Canada,Kelowna,49.9413,-119.4,456,2018,3,20,2,28108,Estimated PM2.5 mass,2.4,Micrograms per cubic meter (ug/m3),181,Site record PM2.5 mass-to-scatter (dry at 550 nm) ratio used to estimate PM2.5 mass; preliminary data,Nephelometry,Ambient local
CAKE,Canada,Kelowna,49.9413,-119.4,456,2018,3,20,3,28108,Estimated PM2.5 mass,2.1,Micrograms per cubic meter (ug/m3),181,Site record PM2.5 mass-to-scatter (dry at 550 nm) ratio used to estimate PM2.5 mass; preliminary data,Nephelometry,Ambient local